User: anonymous   Login
Location: Luz Observatory
(34.5000°N, 117.2833°W)
Time: 22:00:36
(UTC-07:00)
Language:

Cosmos 1452 Rocket - Orbit

View from above orbital plane
View from above orbital plane
View from above satellite
View from above satellite

Ground track
Ground track

The orbit data is extracted from the following two-line orbital elements,

1 13992U 83031B   16272.09386539  .00000133  00000-0  54563-4 0  9994
2 13992  74.0521 127.8376 0005115 185.8050 340.1618 14.36054432751185
Epoch (UTC): 28 September 2016 02:15:09
Eccentricity: 0.0005115
inclination: 74.0521°
perigee height: 768 km
apogee height: 775 km
right ascension of ascending node: 127.8376°
argument of perigee: 185.8050°
revolutions per day: 14.36054432
mean anomaly at epoch: 340.1618°
orbit number at epoch: 75118

The dashed part of the orbit path shows where the satellite is in the earth's shadow,  

DLR